WR9A-13 Weather Reports


Display with metric or nautical units.
time (UTC)temp
F
wind
direction
speed
MPH
gust
MPH
rain 1hr
in
rain 24hr
in
rain mn
in
humidity
%
barometer
mb
20260905214028 91 4 7.0 14.0 0.00 0.00 0.00 69 1012.5
20260905213516 91 349 9.0 14.0 0.00 0.00 0.00 69 1012.4
20260905213014 91 7 4.0 15.0 0.00 0.00 0.00 69 1012.4
20260905212523 92 359 7.0 15.0 0.00 0.00 0.00 68 1012.2
20260905212021 92 340 7.0 13.0 0.00 0.00 0.00 68 1012.2
20260905211538 93 337 5.0 14.0 0.00 0.00 0.00 68 1012.1
20260905211027 93 309 5.0 14.0 0.00 0.00 0.00 67 1012.0
20260905210514 93 32 6.0 14.0 0.00 0.00 0.00 67 1012.0
20260905210026 93 341 7.0 15.0 0.00 0.00 0.00 67 1012.1
20260905205523 94 4 7.0 15.0 0.00 0.00 0.00 65 1012.1
20260905205031 94 344 8.0 14.0 0.00 0.00 0.00 65 1012.2
20260905204529 94 234 6.0 10.0 0.00 0.00 0.00 65 1012.1
20260905204018 94 274 3.0 11.0 0.00 0.00 0.00 65 1012.2
20260905203516 94 264 4.0 11.0 0.00 0.00 0.00 65 1012.3
20260905203019 94 264 5.0 10.0 0.00 0.00 0.00 64 1012.2
20260905202516 94 300 3.0 9.0 0.00 0.00 0.00 64 1012.3
20260905202025 94 313 4.0 12.0 0.00 0.00 0.00 63 1012.3
20260905201523 94 315 4.0 12.0 0.00 0.00 0.00 65 1012.2
20260905201031 93 324 3.0 8.0 0.00 0.00 0.00 66 1012.2
20260905200528 92 332 2.0 8.0 0.00 0.00 0.00 67 1012.3
20260905200039 92 313 3.0 7.0 0.00 0.00 0.00 66 1012.3
20260905195527 92 3 4.0 11.0 0.00 0.00 0.00 66 1012.3
20260905195025 93 343 6.0 11.0 0.00 0.00 0.00 64 1012.3
20260905194514 93 233 3.0 8.0 0.00 0.00 0.00 66 1012.4
20260905194031 94 238 3.0 8.0 0.00 0.00 0.00 66 1012.4
20260905193520 94 310 3.0 10.0 0.00 0.00 0.00 66 1012.7
20260905193037 93 193 4.0 9.0 0.00 0.00 0.00 67 1012.7
20260905192525 93 225 4.0 9.0 0.00 0.00 0.00 68 1012.9
20260905192042 92 259 3.0 9.0 0.00 0.00 0.00 68 1013.0
20260905191530 93 315 3.0 10.0 0.00 0.00 0.00 67 1013.0
20260905191027 93 324 4.0 9.0 0.00 0.00 0.00 66 1012.9
20260905190516 93 328 5.0 9.0 0.00 0.00 0.00 67 1012.8
20260905190028 93 195 4.0 8.0 0.00 0.00 0.00 67 1012.9
20260905185517 93 309 3.0 8.0 0.00 0.00 0.00 65 1013.1
20260905185014 93 315 1.0 8.0 0.00 0.00 0.00 66 1013.1
20260905184522 93 322 3.0 8.0 0.00 0.00 0.00 65 1013.1
20260905184019 93 278 3.0 7.0 0.00 0.00 0.00 67 1013.2
20260905183537 93 347 1.0 5.0 0.00 0.00 0.00 66 1013.2
20260905183026 93 122 2.0 6.0 0.00 0.00 0.00 66 1013.4
20260905182515 93 307 3.0 5.0 0.00 0.00 0.00 66 1013.5
20260905182032 93 213 3.0 5.0 0.00 0.00 0.00 66 1013.6
20260905181520 93 256 3.0 5.0 0.00 0.00 0.00 66 1013.8
20260905181016 93 197 3.0 8.0 0.00 0.00 0.00 67 1014.0
20260905180524 92 192 3.0 8.0 0.00 0.00 0.00 67 1014.0
20260905180015 92 141 3.0 9.0 0.00 0.00 0.00 66 1014.1
20260905175533 93 217 4.0 9.0 0.00 0.00 0.00 65 1014.1
20260905175021 92 264 2.0 9.0 0.00 0.00 0.00 64 1014.2
20260905174519 92 205 4.0 9.0 0.00 0.00 0.00 66 1014.3
20260905174023 92 210 2.0 7.0 0.00 0.00 0.00 65 1014.2
20260905173520 92 202 2.0 5.0 0.00 0.00 0.00 66 1014.2
20260905173029 92 182 2.0 9.0 0.00 0.00 0.00 67 1014.4
20260905172526 91 198 5.0 9.0 0.00 0.00 0.00 66 1014.6
20260905172014 91 201 2.0 7.0 0.00 0.00 0.00 66 1014.5
20260905171531 91 212 3.0 9.0 0.00 0.00 0.00 66 1014.6
20260905171019 91 211 4.0 8.0 0.00 0.00 0.00 68 1014.6
20260905170516 90 114 3.0 7.0 0.00 0.00 0.00 67 1014.7
20260905170017 90 197 3.0 7.0 0.00 0.00 0.00 66 1014.7
20260905165516 90 193 3.0 6.0 0.00 0.00 0.00 67 1014.8
20260905165033 90 212 4.0 7.0 0.00 0.00 0.00 67 1014.8
20260905164520 90 231 3.0 7.0 0.00 0.00 0.00 68 1015.0
20260905164037 89 132 2.0 7.0 0.00 0.00 0.00 68 1014.9
20260905163526 89 240 4.0 8.0 0.00 0.00 0.00 67 1014.9
20260905163014 89 252 3.0 8.0 0.00 0.00 0.00 68 1014.8
20260905162531 88 239 4.0 8.0 0.00 0.00 0.00 69 1014.9
20260905162029 88 199 2.0 8.0 0.00 0.00 0.00 68 1014.9
20260905161518 88 295 2.0 8.0 0.00 0.00 0.00 67 1014.9
20260905161036 88 124 3.0 11.0 0.00 0.00 0.00 68 1014.9
20260905160524 87 175 2.0 9.0 0.00 0.00 0.00 69 1014.7
20260905160015 87 205 5.0 10.0 0.00 0.00 0.00 69 1014.7
20260905155524 87 252 3.0 10.0 0.00 0.00 0.00 69 1014.8
20260905155022 87 248 3.0 9.0 0.00 0.00 0.00 71 1014.9
20260905154540 87 188 4.0 9.0 0.00 0.00 0.00 70 1014.8
20260905154028 87 216 3.0 9.0 0.00 0.00 0.00 69 1014.9
20260905153516 87 150 3.0 8.0 0.00 0.00 0.00 71 1015.0
20260905153032 86 240 2.0 9.0 0.00 0.00 0.00 69 1015.0
20260905152520 87 137 2.0 9.0 0.00 0.00 0.00 70 1014.7
20260905152017 86 109 2.0 9.0 0.00 0.00 0.00 71 1014.7
20260905151526 85 175 2.0 8.0 0.00 0.00 0.00 72 1014.7
20260905151024 85 182 1.0 10.0 0.00 0.00 0.00 72 1014.9
20260905150541 84 180 2.0 12.0 0.00 0.00 0.00 72 1015.0
20260905150023 84 143 3.0 9.0 0.00 0.00 0.00 72 1014.9
20260905145519 84 204 4.0 9.0 0.00 0.00 0.00 72 1015.0
20260905145022 84 201 2.0 8.0 0.00 0.00 0.00 74 1015.1
20260905144519 84 182 3.0 11.0 0.00 0.00 0.00 73 1015.2
20260905144028 84 95 4.0 12.0 0.00 0.00 0.00 74 1015.3
20260905143526 83 178 5.0 12.0 0.00 0.00 0.00 74 1015.2
20260905143015 83 199 2.0 10.0 0.00 0.00 0.00 77 1015.1
20260905142532 82 163 3.0 10.0 0.00 0.00 0.00 76 1015.1
20260905142019 82 230 1.0 9.0 0.00 0.00 0.00 76 1015.0
20260905141517 82 192 3.0 11.0 0.00 0.00 0.00 77 1014.7
20260905141026 82 128 4.0 11.0 0.00 0.00 0.00 76 1014.7
20260905140523 82 171 2.0 9.0 0.00 0.00 0.00 78 1014.7
20260905140034 82 157 1.0 4.0 0.00 0.00 0.00 81 1014.6
20260905135522 81 163 0.0 4.0 0.00 0.00 0.00 82 1014.6
20260905135039 80 170 1.0 5.0 0.00 0.00 0.00 81 1014.5
20260905134528 80 118 2.0 8.0 0.00 0.00 0.00 82 1014.5
20260905134016 80 150 2.0 8.0 0.00 0.00 0.00 81 1014.6
20260905133533 80 161 2.0 7.0 0.00 0.00 0.00 82 1014.7
20260905133030 80 80 1.0 8.0 0.00 0.00 0.00 82 1014.7
20260905132517 79 156 2.0 7.0 0.00 0.00 0.00 83 1014.7
20260905132034 79 120 1.0 7.0 0.00 0.00 0.00 83 1014.6
20260905131522 79 89 2.0 7.0 0.00 0.00 0.00 83 1014.7
20260905131039 79 154 2.0 7.0 0.00 0.00 0.00 84 1014.9
20260905130527 79 149 2.0 7.0 0.00 0.00 0.00 84 1014.7
20260905130018 78 180 1.0 8.0 0.00 0.00 0.00 85 1014.9
20260905125536 78 145 1.0 8.0 0.00 0.00 0.00 84 1014.7
20260905125021 78 107 2.0 6.0 0.00 0.00 0.00 85 1014.8
20260905124537 78 124 2.0 7.0 0.00 0.00 0.00 85 1014.9
20260905124026 78 93 2.0 7.0 0.00 0.00 0.00 86 1014.8
20260905123514 79 132 1.0 6.0 0.00 0.00 0.00 89 1014.8
20260905123032 78 132 2.0 6.0 0.00 0.00 0.00 89 1014.7
20260905122519 78 89 1.0 3.0 0.00 0.00 0.00 90 1014.6
20260905122016 78 82 2.0 5.0 0.00 0.00 0.00 91 1014.5
20260905121534 77 107 0.0 8.0 0.00 0.00 0.00 92 1014.5
20260905121021 77 111 3.0 8.0 0.00 0.00 0.00 93 1014.5
20260905120534 76 206 0.0 1.0 0.00 0.00 0.00 93 1014.2
20260905120017 76 211 0.0 0.0 0.00 0.00 0.00 93 1014.1
20260905115514 76 212 0.0 0.0 0.00 0.00 0.00 93 1014.0
20260905115022 76 212 0.0 0.0 0.00 0.00 0.00 93 1014.1
20260905114518 76 212 0.0 0.0 0.00 0.00 0.00 93 1014.0
20260905114026 76 212 0.0 0.0 0.00 0.00 0.00 93 1014.0
20260905113521 76 211 0.0 0.0 0.00 0.00 0.00 93 1014.0
20260905113040 76 213 0.0 0.0 0.00 0.00 0.00 93 1014.2
20260905112527 76 211 0.0 0.0 0.00 0.00 0.00 93 1014.0
20260905112014 76 213 0.0 0.0 0.00 0.00 0.00 93 1013.9
20260905111531 76 211 0.0 0.0 0.00 0.00 0.00 93 1013.9
20260905111019 76 212 0.0 0.0 0.00 0.00 0.00 93 1013.8
20260905110516 76 211 0.0 0.0 0.00 0.00 0.00 93 1013.7
20260905110026 76 212 0.0 0.0 0.00 0.00 0.00 93 1013.7
20260905105514 76 211 0.0 0.0 0.00 0.00 0.00 93 1013.7
20260905105031 76 212 0.0 1.0 0.00 0.00 0.00 92 1013.7
20260905104520 76 212 0.0 1.0 0.00 0.00 0.00 92 1013.6
20260905104017 76 212 0.0 1.0 0.00 0.00 0.00 92 1013.8
20260905103525 76 212 0.0 0.0 0.00 0.00 0.00 92 1013.7
20260905103021 76 213 0.0 1.0 0.00 0.00 0.00 92 1013.7
20260905102529 76 212 0.0 1.0 0.00 0.00 0.00 92 1013.6
20260905102026 76 211 0.0 1.0 0.00 0.00 0.00 92 1013.6
20260905101515 76 212 0.0 1.0 0.00 0.00 0.00 91 1013.7
20260905101031 76 211 0.0 1.0 0.00 0.00 0.00 91 1013.7
20260905100520 76 212 0.0 1.0 0.00 0.00 0.00 91 1013.7
20260905100032 76 212 0.0 1.0 0.00 0.00 0.00 91 1013.9
20260905095529 76 211 0.0 0.0 0.00 0.00 0.00 91 1013.9
20260905095017 77 212 0.0 1.0 0.00 0.00 0.00 91 1013.9
20260905094533 77 213 0.0 1.0 0.00 0.00 0.00 91 1014.0
20260905094021 77 212 0.0 0.0 0.00 0.00 0.00 91 1014.0
20260905093538 77 212 0.0 0.0 0.00 0.00 0.00 91 1014.0
20260905093026 77 211 0.0 0.0 0.00 0.00 0.00 91 1014.0
20260905092523 77 213 0.0 0.0 0.00 0.00 0.00 91 1014.0
20260905092027 77 212 0.0 0.0 0.00 0.00 0.00 90 1013.9
20260905091525 77 213 0.0 0.0 0.00 0.00 0.00 90 1013.8
20260905091014 77 213 0.0 0.0 0.00 0.00 0.00 90 1013.7
20260905090531 77 213 0.0 0.0 0.00 0.00 0.00 90 1013.8
20260905090042 77 211 0.0 0.0 0.00 0.00 0.00 90 1013.8
20260905085531 77 212 0.0 0.0 0.00 0.00 0.00 90 1013.7
20260905085019 77 211 0.0 0.0 0.00 0.00 0.00 90 1013.7
20260905084516 78 213 0.0 0.0 0.00 0.00 0.00 89 1013.9
20260905084024 78 213 0.0 1.0 0.00 0.00 0.00 90 1014.0
20260905083519 78 211 0.0 2.0 0.00 0.00 0.00 90 1013.9
20260905083036 78 212 1.0 2.0 0.00 0.00 0.00 90 1013.8
20260905082524 78 212 0.0 0.0 0.00 0.00 0.00 89 1013.7
20260905082041 78 213 0.0 0.0 0.00 0.00 0.00 89 1013.7
20260905081529 78 212 0.0 0.0 0.00 0.00 0.00 89 1013.7
20260905081018 78 212 0.0 1.0 0.00 0.00 0.00 89 1013.7
20260905080516 78 212 0.0 1.0 0.00 0.00 0.00 88 1013.5
20260905080028 78 211 0.0 1.0 0.00 0.00 0.00 88 1013.4
20260905075516 78 213 0.0 1.0 0.00 0.00 0.00 88 1013.3
20260905075033 79 211 0.0 2.0 0.00 0.00 0.00 88 1013.3
20260905074521 79 212 0.0 2.0 0.00 0.00 0.00 88 1013.4
20260905074017 79 211 1.0 2.0 0.00 0.00 0.00 88 1013.2
20260905073525 79 211 0.0 2.0 0.00 0.00 0.00 89 1013.2
20260905073022 79 212 0.0 3.0 0.00 0.00 0.00 89 1013.2
20260905072531 79 212 1.0 5.0 0.00 0.00 0.00 88 1013.1
20260905072029 79 222 2.0 5.0 0.00 0.00 0.00 89 1013.1
20260905071517 79 211 1.0 3.0 0.00 0.00 0.00 89 1013.1
20260905071014 79 213 1.0 3.0 0.00 0.00 0.00 89 1013.2
20260905070522 79 213 1.0 4.0 0.00 0.00 0.00 89 1013.2
20260905070032 79 205 1.0 4.0 0.00 0.00 0.00 89 1013.3
20260905065529 79 204 1.0 3.0 0.00 0.00 0.00 89 1013.2
20260905065017 79 203 1.0 3.0 0.00 0.00 0.00 89 1013.3
20260905064534 79 203 0.0 0.0 0.00 0.00 0.00 89 1013.3
20260905064022 79 203 0.0 0.0 0.00 0.00 0.00 89 1013.4
20260905063534 79 203 0.0 0.0 0.00 0.00 0.00 89 1013.5
20260905063023 79 202 0.0 0.0 0.00 0.00 0.00 89 1013.5
20260905062541 79 203 0.0 0.0 0.00 0.00 0.00 88 1013.5
20260905062029 79 203 0.0 0.0 0.00 0.00 0.00 88 1013.8
20260905061526 79 203 0.0 0.0 0.00 0.00 0.00 88 1013.9
20260905061015 80 203 0.0 0.0 0.00 0.00 0.00 88 1014.0
20260905060532 80 203 0.0 0.0 0.00 0.00 0.00 87 1014.0
20260905060043 80 204 0.0 0.0 0.00 0.00 0.00 87 1014.1
20260905055532 80 203 0.0 0.0 0.00 0.00 0.00 87 1014.2
20260905055020 80 203 0.0 0.0 0.00 0.00 0.00 87 1014.1
20260905054517 80 203 0.0 0.0 0.00 0.00 0.00 87 1014.1
20260905054035 80 203 0.0 0.0 0.00 0.00 0.00 87 1014.1
20260905053522 80 203 0.0 0.0 0.00 0.00 0.00 87 1014.2
20260905053039 80 203 0.0 0.0 0.00 0.00 0.00 86 1014.2
20260905052527 81 203 0.0 0.0 0.00 0.00 0.00 86 1014.3
20260905052016 81 204 0.0 1.0 0.00 0.00 0.00 86 1014.1
20260905051533 81 203 0.0 1.0 0.00 0.00 0.00 86 1014.2
20260905051021 81 203 0.0 1.0 0.00 0.00 0.00 86 1014.2
20260905050517 81 203 0.0 1.0 0.00 0.00 0.00 85 1014.2
20260905050028 81 204 0.0 1.0 0.00 0.00 0.00 85 1014.4
20260905045516 81 203 0.0 1.0 0.00 0.00 0.00 84 1014.3
20260905045014 81 203 0.0 0.0 0.00 0.00 0.00 84 1014.3
20260905044522 81 204 0.0 1.0 0.00 0.00 0.00 84 1014.1
20260905044019 82 203 0.0 1.0 0.00 0.00 0.00 84 1014.2
20260905043528 82 203 0.0 2.0 0.00 0.00 0.00 84 1014.2
20260905043025 82 202 1.0 2.0 0.00 0.00 0.00 84 1014.3
20260905042544 82 203 0.0 0.0 0.00 0.00 0.00 83 1014.3
20260905042031 82 204 0.0 0.0 0.00 0.00 0.00 83 1014.2
20260905041519 82 203 0.0 1.0 0.00 0.00 0.00 83 1014.3
20260905041017 82 203 0.0 1.0 0.00 0.00 0.00 83 1014.3
20260905040525 83 203 0.0 1.0 0.00 0.00 0.00 83 1014.4
20260905040034 83 203 0.0 3.0 0.00 0.00 0.00 83 1014.5
20260905035532 83 203 0.0 3.0 0.00 0.00 0.00 82 1014.4
20260905035020 83 201 1.0 2.0 0.00 0.00 0.00 83 1014.5
20260905034533 83 201 1.0 2.0 0.00 0.00 0.00 82 1014.5
20260905034023 83 202 0.0 1.0 0.00 0.00 0.00 82 1014.3
20260905033521 83 200 0.0 1.0 0.00 0.00 0.00 82 1014.5
20260905033029 83 201 0.0 1.0 0.00 0.00 0.00 82 1014.5
20260905032526 83 201 0.0 2.0 0.00 0.00 0.00 82 1014.5
20260905032034 83 200 0.0 2.0 0.00 0.00 0.00 82 1014.5
20260905031532 83 201 0.0 2.0 0.00 0.00 0.00 82 1014.5
20260905031020 83 200 0.0 1.0 0.00 0.00 0.00 81 1014.5
20260905030519 83 199 0.0 1.0 0.00 0.00 0.00 81 1014.5
20260905030020 84 201 0.0 2.0 0.00 0.00 0.00 81 1014.5
20260905025518 84 201 0.0 1.0 0.00 0.00 0.00 81 1014.5
20260905025035 84 200 0.0 1.0 0.00 0.00 0.00 80 1014.5
20260905024523 84 201 0.0 1.0 0.00 0.00 0.00 80 1014.5
20260905024041 84 201 0.0 0.0 0.00 0.00 0.00 80 1014.5
20260905023529 84 200 0.0 1.0 0.00 0.00 0.00 80 1014.5
20260905023017 85 200 0.0 1.0 0.00 0.00 0.00 79 1014.4
20260905022514 85 201 0.0 0.0 0.00 0.00 0.00 79 1014.2
20260905022032 85 200 0.0 0.0 0.00 0.00 0.00 79 1014.2
20260905021521 85 201 0.0 0.0 0.00 0.00 0.00 79 1014.2
20260905021038 85 200 0.0 0.0 0.00 0.00 0.00 78 1014.2
20260905020526 86 201 0.0 1.0 0.00 0.00 0.00 78 1014.1
20260905020017 86 200 0.0 1.0 0.00 0.00 0.00 78 1014.1
20260905015526 86 201 0.0 1.0 0.00 0.00 0.00 77 1014.0
20260905015024 86 201 0.0 1.0 0.00 0.00 0.00 77 1014.1
20260905014531 86 201 0.0 2.0 0.00 0.00 0.00 77 1014.1
20260905014028 87 201 0.0 2.0 0.00 0.00 0.00 76 1014.0
20260905013516 87 204 1.0 2.0 0.00 0.00 0.00 76 1013.9
20260905013033 87 204 1.0 3.0 0.00 0.00 0.00 76 1013.9
20260905012521 87 204 1.0 3.0 0.00 0.00 0.00 75 1013.9
20260905012018 88 207 1.0 3.0 0.00 0.00 0.00 75 1013.9
20260905011525 88 207 1.0 3.0 0.00 0.00 0.00 75 1013.9
20260905011022 88 212 1.0 3.0 0.00 0.00 0.00 75 1013.9
20260905010530 89 212 1.0 3.0 0.00 0.00 0.00 75 1013.8
20260905010021 89 212 0.0 1.0 0.00 0.00 0.00 74 1013.8
20260905005535 89 213 0.0 1.0 0.00 0.00 0.00 73 1013.9
20260905005023 89 212 0.0 0.0 0.00 0.00 0.00 73 1013.9
20260905004521 90 211 0.0 1.0 0.00 0.00 0.00 72 1013.9
20260905004029 90 211 0.0 1.0 0.00 0.00 0.00 72 1013.9
20260905003526 90 212 0.0 2.0 0.00 0.00 0.00 71 1013.8
20260905003033 91 211 1.0 2.0 0.00 0.00 0.00 71 1013.8
20260905002528 91 211 1.0 1.0 0.00 0.00 0.00 70 1013.8
20260905002016 91 211 0.0 2.0 0.00 0.00 0.00 69 1013.9
20260905001532 92 212 1.0 2.0 0.00 0.00 0.00 69 1014.0
20260905001019 92 212 0.0 3.0 0.00 0.00 0.00 68 1013.9
20260905000516 92 212 2.0 3.0 0.00 0.00 0.00 67 1013.9
20260905000026 92 212 2.0 3.0 0.00 0.00 0.00 67 1013.9
20260904235532 93 211 1.0 4.0 0.00 0.00 0.00 66 1013.9
20260904235028 93 207 1.0 4.0 0.00 0.00 0.00 65 1013.8
20260904234516 93 230 2.0 4.0 0.00 0.00 0.00 64 1013.8
20260904234034 94 208 1.0 4.0 0.00 0.00 0.00 64 1013.9
20260904233523 94 211 1.0 4.0 0.00 0.00 0.00 64 1014.0
20260904233040 94 212 1.0 4.0 0.00 0.00 0.00 63 1013.8
20260904232528 95 210 2.0 4.0 0.00 0.00 0.00 63 1013.8
20260904232027 95 220 2.0 7.0 0.00 0.00 0.00 62 1013.7
20260904231515 95 236 3.0 8.0 0.00 0.00 0.00 61 1013.5
20260904231033 95 201 4.0 8.0 0.00 0.00 0.00 61 1013.5
20260904230521 96 250 3.0 6.0 0.00 0.00 0.00 60 1013.6
20260904230032 96 269 2.0 8.0 0.00 0.00 0.00 61 1013.6
20260904225519 96 230 3.0 6.0 0.00 0.00 0.00 60 1013.5
20260904225016 96 236 3.0 6.0 0.00 0.00 0.00 60 1013.7
20260904224534 96 209 2.0 6.0 0.00 0.00 0.00 59 1013.5
20260904224022 96 227 2.0 5.0 0.00 0.00 0.00 59 1013.4
20260904223539 96 210 2.0 7.0 0.00 0.00 0.00 59 1013.4
20260904223028 96 233 2.0 8.0 0.00 0.00 0.00 58 1013.4
20260904222514 96 205 2.0 10.0 0.00 0.00 0.00 57 1013.5
20260904222031 96 257 2.0 9.0 0.00 0.00 0.00 56 1013.4
20260904221528 97 241 3.0 9.0 0.00 0.00 0.00 57 1013.4
20260904221016 97 249 5.0 9.0 0.00 0.00 0.00 57 1013.4
20260904220529 97 205 1.0 8.0 0.00 0.00 0.00 58 1013.4
20260904220038 97 192 4.0 11.0 0.00 0.00 0.00 57 1013.4
20260904215526 97 240 5.0 11.0 0.00 0.00 0.00 56 1013.4
20260904215015 97 213 3.0 9.0 0.00 0.00 0.00 57 1013.3
20260904214532 97 249 4.0 9.0 0.00 0.00 0.00 57 1013.3